Starlink 4646

operational
NORAD ID: 53737 Int'l Des: 2022-107 Owner: SPXS Country: US Constellation: starlink
LEOCIRCULAR

About Starlink 4646

Description loading...

Live Position

Loading 3D Globe...

Upcoming Passes

Altitude History

Altitude vs Time

uPlot chart will show altitude changes over time

Two-Line Element Set

1 53737U 22107AP 25259.85787042 .00041063 00000-0 94017-3 0 9999
2 53737 53.2027 305.2343 0004614 26.5889 333.5353 15.42402105168621
Epoch: Sep 16, 2025 • Age: 25 hours

Current Status

Altitude 449.2 km
Velocity 7.64 km/s
Sub-Earth Point -35.16°S, 47.38°W
Launch Date Sep 5, 2022
Age 3 years
Type internet

Technical Details

Classification Payload
Mass 305.00 kg
Dry Mass 290.00 kg
Total Mass 305.00 kg
Length 0.20 m
Diameter 2.80 m
Span 9.00 m
Shape Box + pan
Manufacturer SPXS
Bus Type Starlink
Phase Status In Orbit
Owner/State SPXS/US

Large Constellations

Loading constellations...